Regional Weather Roundup
Issued by NWS

Home | Current Version | Previous Version | Graphics & Text | Print | Product List | Glossary On
Versions: 1 2 3 4 5 6 7 8 9 10 11 12 13 14 15 16 17 18 19 20 21 22 23 24 25 26 27 28 29 30 31 32 33 34 35 36 37 38 39 40 41 42 43 44 45 46 47 48 49 50
000
ASUS43 KLMK 251402
RWRKY
KENTUCKY REGIONAL WEATHER ROUNDUP
NATIONAL WEATHER SERVICE LOUISVILLE KY
1000 AM EDT TUE APR 25 2017

NOTE "FAIR" INDICATES FEW OR NO CLOUDS BELOW 12,000 FEET
WITH NO SIGNIFICANT WEATHER AND/OR OBSTRUCTIONS TO VISIBILITY.

KYZ001>023-026-027-061>063-070>075-251500-
WESTERN AND SOUTH CENTRAL KENTUCKY

CITY           SKY/WX    TMP DP  RH WIND       PRES   REMARKS
PADUCAH        SUNNY     64  55  72 S6        29.75S
HENDERSON      SUNNY     65  57  75 MISG      29.77S
OWENSBORO      MOSUNNY   64  56  75 S7        29.78S
HOPKINSVILLE   SUNNY     62  57  83 SW3       29.79S
BOWLING GREEN  MOSUNNY   63  58  83 CALM      29.79F
GLASGOW        NOT AVBL
$$

KYZ024-025-028>034-038-045-046-053-251500-
NORTH CENTRAL KENTUCKY

CITY           SKY/WX    TMP DP  RH WIND       PRES   REMARKS
LOUISVILLE/SDF MOSUNNY   63  55  75 SE5       29.79F
LOUISVILLE/LOU SUNNY     63  56  78 E5        29.80S
FORT KNOX      SUNNY     60  55  82 E5        29.78S
$$

KYZ035>037-039>044-047>052-055>060-089>105-251500-
NORTHEAST KENTUCKY

CITY           SKY/WX    TMP DP  RH WIND       PRES   REMARKS
LEXINGTON      MOSUNNY   60  53  77 E6        29.82R
COVINGTON      MOSUNNY   61  52  72 E5        29.82R
FRANKFORT      SUNNY     62  52  69 VRB7      29.80R
$$

KYZ054-064>069-076>088-106>120-251500-
SOUTHEAST KENTUCKY

CITY           SKY/WX    TMP DP  RH WIND       PRES   REMARKS
JACKSON        CLOUDY    57  53  86 VRB3      29.81S
LONDON         CLOUDY    56  51  84 VRB5      29.81R
SOMERSET       SUNNY     59  52  77 E3        29.81S
MIDDLESBORO    CLOUDY    57  54  88 CALM      29.82R
MONTICELLO     CLOUDY    61  56  83 W12       29.82R
$$





USA.gov is the U.S. government's official web portal to all federal, state and local government web resources and services.